Weather History for Farmville, VA

Change the Weather History Date:

Thursday, April 17, 2014

  Actual Average Record
Temperature  
Mean Temperature 44 °F -  
Max Temperature 62 °F 71 °F 134 °F (1997)
Min Temperature 26 °F 43 °F 24 °F (1950)
Degree Days  
Heating Degree Days 21    
Moisture  
Dew Point 28 °F    
Average Humidity 56    
Maximum Humidity 100    
Minimum Humidity 24    
Precipitation  
Precipitation 0.00 in - - ()
Sea Level Pressure  
Sea Level Pressure 30.52 in    
Wind  
Wind Speed 4 mph (ENE)    
Max Wind Speed 13 mph    
Max Gust Speed 17 mph    
Visibility 10 miles    
Events      
Averages and records for this station are not official NWS values.
T = Trace of Precipitation, MM = Missing Value Source: NWS Daily Summary

Daily Weather History Graph

Daily Weather History Graph

Search for Another Location

Airport:

Trip Planner

Search our weather history database for the weather conditions in past years. The results will help you decide how hot, cold, wet, or windy it might be!

Date:

Astronomy

Apr. 17, 2014 Rise Set
Actual Time 6:36 AM EDT 7:50 PM EDT
Civil Twilight 6:09 AM EDT 8:17 PM EDT
Nautical Twilight 5:37 AM EDT 8:50 PM EDT
Astronomical Twilight 5:03 AM EDT 9:24 PM EDT
Moon 10:32 PM EDT (4/17) 8:08 AM EDT (4/17)
Length of Visible Light 14h 08m
Length of Day
13h 14m
Waning Gibbous, 94% of the Moon is Illuminated
Apr 17
Waning Gibbous
Apr 22
Last Quarter
Apr 29
New
May 6
First Quarter
May 14
Full

Hourly Weather History & Observations

Time (EDT) Temp. Windchill Dew Point Humidity Pressure Visibility Wind Dir Wind Speed Gust Speed Precip Events Conditions
12:15 AM 37.4 °F 33.8 °F 23.0 °F 56% 30.49 in 10.0 mi NNE 4.6 mph - N/A   Clear
12:55 AM 35.6 °F - 24.8 °F 65% 30.50 in 10.0 mi Calm Calm - N/A   Clear
1:15 AM 35.6 °F - 23.0 °F 60% 30.50 in 10.0 mi Calm Calm - N/A   Clear
1:35 AM 33.8 °F - 24.8 °F 70% 30.50 in 10.0 mi Calm Calm - N/A   Clear
1:55 AM 33.8 °F - 24.8 °F 70% 30.50 in 10.0 mi Calm Calm - N/A   Clear
2:15 AM 33.8 °F - 24.8 °F 70% 30.50 in 10.0 mi Calm Calm - N/A   Clear
2:35 AM 32.0 °F 28.7 °F 24.8 °F 75% 30.50 in 10.0 mi North 3.5 mph - N/A   Clear
2:55 AM 30.2 °F - 24.8 °F 80% 30.50 in 10.0 mi Calm Calm - N/A   Clear
3:15 AM 28.4 °F - 28.4 °F 100% 30.51 in 10.0 mi Calm Calm - N/A   Clear
3:35 AM 28.4 °F - 28.4 °F 100% 30.51 in 10.0 mi Calm Calm - N/A   Clear
3:55 AM 28.4 °F - 28.4 °F 100% 30.51 in 10.0 mi Calm Calm - N/A   Clear
4:15 AM 28.4 °F - 28.4 °F 100% 30.51 in 10.0 mi Calm Calm - N/A   Clear
4:35 AM 28.4 °F - 26.6 °F 93% 30.52 in 10.0 mi Calm Calm - N/A   Clear
4:55 AM 28.4 °F - 26.6 °F 93% 30.52 in 10.0 mi Calm Calm - N/A   Clear
5:15 AM 28.4 °F - 26.6 °F 93% 30.52 in 10.0 mi Calm Calm - N/A   Clear
5:35 AM 28.4 °F - 28.4 °F 100% 30.53 in 10.0 mi Calm Calm - N/A   Clear
5:55 AM 28.4 °F - 26.6 °F 93% 30.53 in 10.0 mi Calm Calm - N/A   Clear
6:15 AM 26.6 °F - 26.6 °F 100% 30.54 in 10.0 mi Calm Calm - N/A   Clear
6:35 AM 28.4 °F - 26.6 °F 93% 30.55 in 10.0 mi Calm Calm - N/A   Clear
6:55 AM 26.6 °F - 26.6 °F 100% 30.56 in 10.0 mi Calm Calm - N/A   Clear
7:15 AM 28.4 °F - 28.4 °F 100% 30.57 in 10.0 mi Calm Calm - N/A   Clear
7:35 AM 32.0 °F 28.7 °F 30.2 °F 93% 30.58 in 10.0 mi North 3.5 mph - N/A   Clear
7:55 AM 33.8 °F 29.6 °F 26.6 °F 75% 30.57 in 10.0 mi NNE 4.6 mph - N/A   Clear
8:15 AM 35.6 °F 30.7 °F 26.6 °F 70% 30.58 in 10.0 mi NNE 5.8 mph - N/A   Clear
8:35 AM 37.4 °F 30.8 °F 28.4 °F 70% 30.58 in 10.0 mi NNE 9.2 mph - N/A   Clear
8:55 AM 39.2 °F 34.2 °F 30.2 °F 70% 30.58 in 10.0 mi NNE 6.9 mph - N/A   Clear
9:15 AM 42.8 °F 38.6 °F 30.2 °F 61% 30.58 in 10.0 mi NE 6.9 mph - N/A   Clear
9:35 AM 42.8 °F 39.3 °F 30.2 °F 61% 30.58 in 10.0 mi NNE 5.8 mph - N/A   Clear
9:55 AM 46.4 °F 42.4 °F 28.4 °F 50% 30.58 in 10.0 mi NE 8.1 mph - N/A   Clear
10:15 AM 48.2 °F - 26.6 °F 43% 30.59 in 10.0 mi ENE 6.9 mph - N/A   Clear
10:35 AM 48.2 °F - 24.8 °F 40% 30.59 in 10.0 mi NE 12.7 mph - N/A   Clear
10:55 AM 51.8 °F - 24.8 °F 35% 30.59 in 10.0 mi NE 11.5 mph - N/A   Clear
11:15 AM 51.8 °F - 24.8 °F 35% 30.59 in 10.0 mi East 8.1 mph - N/A   Clear
11:35 AM 51.8 °F - 28.4 °F 41% 30.59 in 10.0 mi ENE 4.6 mph - N/A   Clear
11:55 AM 51.8 °F - 28.4 °F 41% 30.58 in 10.0 mi East 6.9 mph - N/A   Clear
12:15 PM 53.6 °F - 26.6 °F 35% 30.57 in 10.0 mi ENE 8.1 mph - N/A   Clear
12:35 PM 55.4 °F - 26.6 °F 33% 30.56 in 10.0 mi NE 5.8 mph - N/A   Clear
12:55 PM 55.4 °F - 26.6 °F 33% 30.55 in 10.0 mi ENE 9.2 mph - N/A   Clear
1:15 PM 55.4 °F - 26.6 °F 33% 30.54 in 10.0 mi NE 5.8 mph - N/A   Clear
1:35 PM 57.2 °F - 24.8 °F 29% 30.54 in 10.0 mi East 5.8 mph - N/A   Clear
1:55 PM 57.2 °F - 24.8 °F 29% 30.53 in 10.0 mi East 5.8 mph - N/A   Clear
2:15 PM 57.2 °F - 24.8 °F 29% 30.52 in 10.0 mi North 3.5 mph - N/A   Clear
2:35 PM 59.0 °F - 24.8 °F 27% 30.51 in 10.0 mi NNE 10.4 mph - N/A   Clear
2:55 PM 60.8 °F - 24.8 °F 25% 30.51 in 10.0 mi East 6.9 mph - N/A   Clear
3:15 PM 60.8 °F - 24.8 °F 25% 30.50 in 10.0 mi East 6.9 mph - N/A   Clear
3:35 PM 60.8 °F - 24.8 °F 25% 30.49 in 10.0 mi NE 5.8 mph - N/A   Clear
3:55 PM 62.6 °F - 24.8 °F 24% 30.48 in 10.0 mi ENE 3.5 mph - N/A   Clear
4:15 PM 60.8 °F - 24.8 °F 25% 30.48 in 10.0 mi ENE 6.9 mph - N/A   Clear
4:35 PM 60.8 °F - 24.8 °F 25% 30.47 in 10.0 mi NE 4.6 mph - N/A   Clear
4:55 PM 62.6 °F - 24.8 °F 24% 30.47 in 10.0 mi ENE 6.9 mph - N/A   Clear
5:15 PM 60.8 °F - 26.6 °F 27% 30.47 in 10.0 mi SSE 3.5 mph - N/A   Clear
5:35 PM 60.8 °F - 26.6 °F 27% 30.47 in 10.0 mi NE 8.1 mph - N/A   Clear
5:55 PM 60.8 °F - 26.6 °F 27% 30.46 in 10.0 mi ENE 9.2 mph - N/A   Clear
6:15 PM 60.8 °F - 26.6 °F 27% 30.46 in 10.0 mi NE 8.1 mph - N/A   Clear
6:35 PM 60.8 °F - 28.4 °F 29% 30.46 in 10.0 mi ESE 5.8 mph - N/A   Clear
6:55 PM 60.8 °F - 28.4 °F 29% 30.46 in 10.0 mi NE 9.2 mph - N/A   Clear
7:15 PM 57.2 °F - 30.2 °F 36% 30.45 in 10.0 mi ENE 6.9 mph - N/A   Clear
7:35 PM 55.4 °F - 30.2 °F 38% 30.45 in 10.0 mi NE 5.8 mph - N/A   Clear
7:55 PM 53.6 °F - 30.2 °F 41% 30.45 in 10.0 mi NE 4.6 mph - N/A   Clear
8:15 PM 51.8 °F - 32.0 °F 47% 30.45 in 10.0 mi NE 4.6 mph - N/A   Clear
8:35 PM 51.8 °F - 32.0 °F 47% 30.46 in 10.0 mi NE 5.8 mph - N/A   Clear
8:55 PM 51.8 °F - 32.0 °F 47% 30.46 in 10.0 mi ENE 4.6 mph - N/A   Clear
9:15 PM 51.8 °F - 33.8 °F 50% 30.48 in 10.0 mi East 3.5 mph - N/A   Clear
9:35 PM 51.8 °F - 33.8 °F 50% 30.50 in 10.0 mi East 9.2 mph 17.3 mph N/A   Clear
9:55 PM 50.0 °F - 33.8 °F 54% 30.51 in 10.0 mi East 6.9 mph - N/A   Clear
10:15 PM 48.2 °F - 33.8 °F 58% 30.52 in 10.0 mi ENE 3.5 mph - N/A   Clear
10:35 PM 46.4 °F 44.3 °F 33.8 °F 62% 30.51 in 10.0 mi ENE 4.6 mph - N/A   Clear
10:55 PM 46.4 °F 44.3 °F 33.8 °F 62% 30.50 in 10.0 mi ENE 4.6 mph - N/A   Clear
11:15 PM 46.4 °F 43.5 °F 33.8 °F 62% 30.50 in 10.0 mi East 5.8 mph - N/A   Clear
11:35 PM 44.6 °F 42.2 °F 33.8 °F 66% 30.52 in 10.0 mi ENE 4.6 mph - N/A   Clear
11:55 PM 44.6 °F 42.2 °F 33.8 °F 66% 30.52 in 10.0 mi East 4.6 mph - N/A   Clear